Location: Lahitte
(43.6596°N, 0.6805°E)
Time: 11:36:46
(UTC+00:00)

Spot 2 Rocket - Pass Details

Date: 15 May 2026
Orbit: 752 x 765 km, 98.3° (Epoch: 6 June)

Event Time Altitude Azimuth Distance (km) Brightness Sun altitude
Exits shadow 21:03:00 17° 181° (S) 1,849 5.1 -16.1°
Maximum altitude 21:06:52 62° 259° (WSW) 847 3.8 -16.6°
Drops below altitude 10° 21:11:52 10° 340° (NNW) 2,291 7.1 -17.2°
Sets 21:14:12 0° 344° (NNW) 3,222 8.0 -17.4°
